Date,TemperatureHighF,TemperatureAvgF,TemperatureLowF,DewpointHighF,DewpointAvgF,DewpointLowF,HumidityHigh,HumidityAvg,HumidityLow,PressureMaxIn,PressureMinIn,WindSpeedMaxMPH,WindSpeedAvgMPH,GustSpeedMaxMPH,PrecipitationSumIn
2013-1-25,32,24,16,-100,-100,-100,0,0,100,29.63,29.31,28,22,0,0.00
2013-1-26,10,7,8,-100,-100,-100,0,0,100,29.84,29.68,10,9,0,0.00
2013-1-27,15,6,2,-100,-100,-100,0,0,100,30.11,29.98,28,22,0,0.00
2013-1-28,11,8,5,-100,-100,-100,0,0,100,30.18,30.00,43,30,0,0.00
2013-1-29,12,11,10,-100,-100,-100,0,0,100,29.75,29.68,43,32,0,0.00
2013-1-30,30,28,28,-100,-100,-100,0,0,100,29.74,29.73,22,22,0,0.00
2013-1-31,33,32,32,-100,-100,-100,0,0,100,29.88,29.74,10,6,0,0.00
2013-2-1,32,31,28,-100,-100,-100,0,0,100,29.90,29.75,15,14,0,0.00
2013-2-2,34,32,30,-100,-100,-100,0,0,100,29.56,29.43,28,21,0,0.00
2013-2-3,37,34,30,-100,-100,-100,0,0,100,29.40,29.21,28,10,0,0.00
2013-2-4,35,33,31,-100,-100,-100,0,0,100,29.59,29.47,22,11,0,0.00
2013-2-5,32,30,29,-100,-100,-100,0,0,100,29.59,29.53,6,5,0,0.00
2013-2-6,33,31,29,-100,-100,-100,0,0,100,29.60,29.56,6,4,0,0.00
2013-2-7,28,28,27,-100,-100,-100,0,0,100,29.53,29.35,22,19,0,0.00
2013-2-8,30,29,28,-100,-100,-100,0,0,100,29.72,29.47,15,14,0,0.00
2013-2-9,37,34,32,-100,-100,-100,0,0,100,29.50,29.06,22,16,0,0.00
2013-2-10,36,34,32,-100,-100,-100,0,0,100,29.94,29.12,22,15,0,0.00
2013-2-11,28,26,24,-100,-100,-100,0,0,100,29.70,29.53,28,19,0,0.00
2013-2-12,28,25,23,-100,-100,-100,0,0,100,29.81,29.71,15,11,0,0.00
2013-2-13,32,26,24,-100,-100,-100,0,0,100,29.80,29.72,15,13,0,0.00
2013-2-14,33,30,28,-100,-100,-100,0,0,100,29.47,29.23,34,25,0,0.00
2013-2-15,28,27,25,-100,-100,-100,0,0,100,29.81,29.55,22,14,0,0.00
2013-2-16,15,11,8,-100,-100,-100,0,0,100,29.99,29.92,22,13,0,0.00
2013-2-17,25,22,19,-100,-100,-100,0,0,100,29.66,29.58,28,20,0,0.00
2013-2-18,10,1,-6,-100,-100,-100,0,0,100,29.90,29.88,6,6,0,0.00
2013-2-19,16,7,3,-100,-100,-100,0,0,100,29.79,29.40,15,13,0,0.00
2013-2-20,16,16,16,-100,-100,-100,0,0,100,29.09,29.09,28,28,0,0.00
2013-3-7,39,39,39,-100,-100,-100,0,0,100,29.50,29.50,15,15,0,0.00
2013-3-8,39,39,39,-100,-100,-100,0,0,100,29.53,29.53,10,10,0,0.00
2013-3-9,32,32,32,-100,-100,-100,0,0,100,29.77,29.77,2,2,0,0.00
2013-3-10,32,32,32,-100,-100,-100,0,0,100,30.03,30.03,15,15,0,0.00
2013-3-11,32,32,32,-100,-100,-100,0,0,100,30.27,30.27,10,10,0,0.00
2013-3-12,32,32,32,-100,-100,-100,0,0,100,30.24,30.24,28,28,0,0.00
2013-3-13,28,28,28,-100,-100,-100,0,0,100,29.94,29.94,34,34,0,0.00
2013-3-14,21,21,21,-100,-100,-100,0,0,100,29.77,29.77,0,0,0,0.00
2013-3-15,27,27,27,-100,-100,-100,0,0,100,29.80,29.80,22,22,0,0.00
2013-3-16,-200,0,200,-100,-100,-100,0,0,100,29.88,29.88,10,10,0,0.00
2013-3-17,21,21,21,-100,-100,-100,0,0,100,30.12,30.12,6,6,0,0.00
2013-3-18,21,21,21,-100,-100,-100,0,0,100,29.97,29.97,10,10,0,0.00
2013-3-19,23,23,23,-100,-100,-100,0,0,100,29.88,29.88,15,15,0,0.00
2013-3-20,19,19,19,-100,-100,-100,0,0,100,29.88,29.88,23,23,0,0.00
2013-3-21,20,20,19,-100,-100,-100,0,0,100,30.19,30.03,10,10,0,0.00
2013-3-22,28,24,19,-100,-100,-100,0,0,100,30.03,29.86,22,15,0,0.00
2013-3-23,31,29,28,-100,-100,-100,0,0,100,29.84,29.77,22,18,0,0.00
2013-3-24,25,23,20,-100,-100,-100,0,0,100,29.83,29.65,15,11,0,0.00
2013-3-25,21,19,18,-100,-100,-100,0,0,100,29.59,29.45,22,12,0,0.00
2013-3-26,18,12,8,-100,-100,-100,0,0,100,30.05,29.85,15,11,0,0.00
2013-3-27,16,13,8,-100,-100,-100,0,0,100,30.28,30.18,15,12,0,0.00
2013-3-28,25,20,15,-100,-100,-100,0,0,100,30.12,29.90,28,23,0,0.00
2013-3-29,33,28,19,-100,-100,-100,0,0,100,29.88,29.83,34,26,0,0.00
2013-3-30,38,34,30,-100,-100,-100,0,0,100,30.18,30.09,10,9,0,0.00
2013-3-31,38,33,27,-100,-100,-100,0,0,100,30.25,30.14,15,8,0,0.00
2013-4-1,36,33,30,-100,-100,-100,0,0,100,30.06,29.98,6,6,0,0.00
2013-4-2,34,31,28,-100,-100,-100,0,0,100,30.12,30.09,10,8,0,0.00
2013-4-3,40,34,28,-100,-100,-100,0,0,100,30.21,30.18,22,15,0,0.00
2013-4-4,41,40,36,-100,-100,-100,0,0,100,30.00,29.85,22,14,0,0.00
2013-4-5,23,19,12,-100,-100,-100,0,0,100,29.65,29.60,17,16,0,0.00
2013-4-6,32,28,23,-100,-100,-100,0,0,100,29.49,29.44,22,17,0,0.00
2013-4-7,22,21,20,-100,-100,-100,0,0,100,29.76,29.63,22,13,0,0.00
2013-4-8,19,19,19,-100,-100,-100,0,0,100,29.66,29.66,10,10,0,0.00
2013-4-9,18,18,17,-100,-100,-100,0,0,100,29.45,29.22,22,22,0,0.00
2013-4-10,21,19,18,-100,-100,-100,0,0,100,29.86,29.85,10,8,0,0.00
2013-4-11,19,10,2,-100,-100,-100,0,0,100,30.07,30.03,15,15,0,0.00
2013-4-12,27,25,20,-100,-100,-100,0,0,100,30.12,30.08,22,16,0,0.00
2013-4-13,23,23,23,-100,-100,-100,0,0,100,30.20,30.20,22,22,0,0.00
2013-4-14,41,39,37,-100,-100,-100,0,0,100,30.52,30.46,6,6,0,0.00
2013-4-15,42,36,26,-100,-100,-100,0,0,100,30.36,30.31,22,22,0,0.00
2013-4-16,33,26,19,-100,-100,-100,0,0,100,30.24,30.17,15,12,0,0.00
2013-8-11,52,52,52,-100,-100,-100,0,0,100,30.00,30.00,15,15,0,0.00
2013-8-12,54,51,50,-100,-100,-100,0,0,100,30.04,29.98,15,14,0,0.00
2013-8-13,67,58,58,-100,-100,-100,0,0,100,30.05,29.98,22,11,0,0.00
2013-8-14,61,60,60,-100,-100,-100,0,0,100,30.01,29.91,15,7,0,0.00
2013-8-15,64,56,50,-100,-100,-100,0,0,100,29.86,29.78,10,9,0,0.00
2013-8-16,59,55,52,-100,-100,-100,0,0,100,29.75,29.60,15,11,0,0.00
2013-8-17,56,56,56,-100,-100,-100,0,0,100,29.60,29.60,22,22,0,0.00
2013-8-18,64,64,64,-100,-100,-100,0,0,100,29.53,29.53,6,6,0,0.00
2013-8-19,58,53,55,-100,-100,-100,0,0,100,29.73,29.68,34,21,0,0.00
2013-8-20,60,57,55,-100,-100,-100,0,0,100,29.84,29.81,28,20,0,0.00
2013-8-21,53,51,50,-100,-100,-100,0,0,100,29.82,29.75,34,23,0,0.00
2013-8-23,66,66,66,57,57,57,72,72,72,29.88,29.88,69,69,0,0.00
2013-8-24,57,57,57,50,50,50,76,76,76,29.59,29.59,6,6,0,0.00
2013-8-27,54,54,54,50,50,50,87,87,87,29.71,29.71,0,0,0,0.00
2013-8-29,54,54,54,50,50,50,87,87,87,29.50,29.50,34,34,0,0.00
2013-8-30,55,55,55,52,52,52,87,87,87,29.91,29.91,10,10,0,0.00
2013-9-3,54,54,54,50,50,50,87,87,87,29.41,29.41,10,10,0,0.00
2013-9-5,50,50,50,43,43,43,76,76,76,29.85,29.85,10,10,0,0.00
2013-9-6,54,52,49,46,-27,-100,76,38,76,29.88,29.55,28,28,0,0.00
2013-9-7,57,52,49,48,-72,-100,87,17,87,29.64,29.47,22,15,0,0.00
2013-9-8,54,51,47,52,-70,-100,100,20,100,29.78,29.44,34,18,0,0.00
2013-9-9,51,49,46,-100,-100,-100,0,0,100,29.69,29.57,15,12,0,0.00
2013-9-10,54,51,48,46,-83,-100,76,9,76,29.74,29.68,15,13,0,0.00
2013-9-11,56,51,47,48,-86,-100,87,8,87,29.81,29.61,28,18,0,0.00
2013-9-12,56,53,50,-100,-100,-100,0,0,100,29.97,29.91,15,9,0,0.00
2013-9-13,52,51,49,48,-70,-100,87,17,87,29.91,29.88,28,27,0,0.00
2013-9-14,56,53,51,48,-75,-100,87,14,87,29.91,29.85,15,9,0,0.00
2013-9-15,54,51,47,-100,-100,-100,0,0,100,29.88,29.74,15,12,0,0.00
2013-9-16,51,50,48,-100,-100,-100,0,0,100,29.63,29.49,10,10,0,0.00
2013-9-17,53,50,47,-100,-100,-100,0,0,100,29.48,29.46,10,7,0,0.00
2013-9-19,50,48,45,43,-81,-100,87,11,87,29.55,29.46,15,9,0,0.00
2013-9-20,51,48,46,-100,-100,-100,0,0,100,29.39,29.17,15,12,0,0.00
2013-9-21,43,42,41,-100,-100,-100,0,0,100,29.01,28.99,22,22,0,0.00
2013-9-22,48,44,40,-100,-100,-100,0,0,100,29.29,29.04,28,25,0,0.00
2013-9-23,48,44,39,-100,-100,-100,0,0,100,29.63,29.48,22,15,0,0.00
2013-9-24,41,34,26,-100,-100,-100,0,0,100,29.96,29.93,22,14,0,0.00
2013-9-25,49,49,49,-100,-100,-100,0,0,100,29.55,29.55,15,15,0,0.00
2013-9-26,43,43,43,-100,-100,-100,0,0,100,29.62,29.51,6,4,0,0.00
2013-9-27,48,45,42,-100,-100,-100,0,0,100,29.06,28.93,34,32,0,0.00
2013-9-28,52,50,46,-100,-100,-100,0,0,100,29.12,29.09,22,14,0,0.00
2013-9-29,51,48,46,-100,-100,-100,0,0,100,29.37,29.29,22,20,0,0.00
2013-9-30,42,40,39,-100,-100,-100,0,0,100,29.51,29.48,15,15,0,0.00
2013-10-1,49,49,48,-100,-100,-100,0,0,100,29.78,29.76,6,6,0,0.00
2013-10-18,48,48,48,41,41,41,76,76,76,29.65,29.65,15,15,0,0.00
2013-10-21,43,43,43,39,39,39,86,86,86,29.94,29.94,15,15,0,0.00
2013-10-23,39,39,39,36,36,36,86,86,86,29.88,29.88,22,22,0,0.00
2013-10-24,43,43,43,34,34,34,70,70,70,29.68,29.68,15,15,0,0.00
2013-10-27,41,41,41,37,37,37,86,86,86,30.24,30.24,15,15,0,0.00
2013-10-28,46,46,46,43,43,43,87,87,87,29.41,29.41,6,6,0,0.00
2013-11-1,43,42,41,-100,-100,-100,0,0,100,29.93,29.88,10,10,0,0.00
2013-11-2,46,46,46,-100,-100,-100,0,0,100,29.75,29.73,22,22,0,0.00
2013-11-3,45,44,43,-100,-100,-100,0,0,100,29.70,29.58,22,17,0,0.00
2013-11-4,45,41,39,37,-67,-100,75,18,75,29.48,29.30,28,21,0,0.00
2013-11-5,41,39,37,37,-77,-100,86,14,86,29.85,29.47,10,8,0,0.00
2013-11-6,35,29,22,-100,-100,-100,0,0,100,30.08,29.99,10,9,0,0.00
2013-11-7,34,31,29,18,-65,-100,51,15,51,29.85,29.79,22,19,0,0.00
2013-11-8,29,23,20,-100,-100,-100,0,0,100,30.16,29.98,15,10,0,0.00
2013-11-9,44,39,40,-100,-100,-100,0,0,100,30.19,30.12,6,6,0,0.00
2013-11-10,46,44,42,43,-76,-100,87,14,87,29.94,29.74,28,15,0,0.00
2013-11-11,37,35,33,-100,-100,-100,0,0,100,30.04,29.95,29,22,0,0.00
2013-11-12,34,28,23,-100,-100,-100,0,0,100,30.11,30.09,22,15,0,0.00
2013-11-13,25,24,22,-100,-100,-100,0,0,100,30.22,30.12,15,12,0,0.00
2013-11-14,38,32,27,-100,-100,-100,0,0,100,30.03,29.88,17,14,0,0.00
2013-11-15,26,24,20,-100,-100,-100,0,0,100,30.05,29.96,17,13,0,0.00
2013-11-16,25,20,18,-100,-100,-100,0,0,100,30.20,30.01,23,12,0,0.00
2013-11-17,14,14,14,-100,-100,-100,0,0,100,30.24,30.24,31,31,0,0.00
2013-11-18,15,10,2,-100,-100,-100,0,0,100,30.23,30.17,29,18,0,0.00
2013-11-19,11,3,-2,-100,-100,-100,0,0,100,30.15,30.02,17,15,0,0.00
2013-11-20,7,6,5,-100,-100,-100,0,0,100,30.10,30.02,34,24,0,0.00
2013-11-21,15,12,8,-100,-100,-100,0,0,100,29.90,29.39,34,31,0,0.00
2013-11-22,25,24,24,-100,-100,-100,0,0,100,29.15,29.10,17,14,0,0.00
2013-11-23,29,25,27,-100,-100,-100,0,0,100,29.91,29.84,11,6,0,0.00
2013-11-24,31,30,28,-100,-100,-100,0,0,100,30.04,30.00,21,17,0,0.00
2013-11-25,29,28,27,-100,-100,-100,0,0,100,29.93,29.76,29,19,0,0.00
2013-11-26,29,29,28,-100,-100,-100,0,0,100,29.90,29.84,9,7,0,0.00
2013-11-27,28,28,27,-100,-100,-100,0,0,100,29.83,29.79,9,9,0,0.00
2013-11-28,13,13,13,-100,-100,-100,0,0,100,29.74,29.74,23,23,0,0.00
2013-12-13,10,10,10,-100,-100,-100,0,0,100,29.44,29.44,15,15,0,0.00
2013-12-14,19,19,19,-100,-100,-100,0,0,100,29.85,29.85,6,6,0,0.00
2013-12-16,7,7,7,-100,-100,-100,0,0,100,29.97,29.97,15,15,0,0.00
2013-12-18,-11,-11,-11,-100,-100,-100,0,0,100,30.39,30.39,10,10,0,0.00
2013-12-20,10,10,10,-100,-100,-100,0,0,100,29.68,29.68,6,6,0,0.00
2013-12-21,28,28,28,-100,-100,-100,0,0,100,29.68,29.68,10,10,0,0.00
2013-12-22,28,28,28,-100,-100,-100,0,0,100,29.44,29.44,10,10,0,0.00
2013-12-23,18,18,18,-100,-100,-100,0,0,100,29.83,29.83,6,6,0,0.00
2013-12-26,-17,-17,-17,-100,-100,-100,0,0,100,29.77,29.77,11,11,0,0.00
2013-12-27,12,0,-9,-100,-100,-100,0,0,100,29.96,29.87,14,12,0,0.00
2013-12-28,21,19,20,-100,-100,-100,0,0,100,29.95,29.88,11,9,0,0.00
2013-12-29,22,20,16,-100,-100,-100,0,0,100,29.95,29.74,11,7,0,0.00
2013-12-30,27,21,18,-100,-100,-100,0,0,100,29.49,29.46,21,12,0,0.00
2013-12-31,27,24,19,-100,-100,-100,0,0,100,29.65,29.33,31,19,0,0.00
2014-1-1,34,32,30,-100,-100,-100,0,0,100,29.24,29.12,28,18,0,0.00
2014-1-2,32,27,23,-100,-100,-100,0,0,100,30.02,29.59,11,7,0,0.00